This is the latest recevied weather packets stored in our database for station/object AK7AN-W. If no packets are shown the sender has not sent any weather packets the latest 10 day(s).
| Time | Temp. | Humidity | Pressure | Rain* | Wind** | Luminosity | Snow |
|---|---|---|---|---|---|---|---|
| 1788155704 | 56° F | 85% | 762.5 mmHg | 0 in | - | - | - |
| 1788155404 | 56° F | 85% | 762.6 mmHg | 0 in | - | - | - |
| 1788155104 | 56° F | 84% | 762.4 mmHg | 0 in | - | - | - |
| 1788154804 | 56° F | 84% | 762.4 mmHg | 0 in | - | - | - |
| 1788154504 | 56° F | 85% | 762.4 mmHg | 0 in | - | - | - |
| 1788154204 | 56° F | 84% | 762.4 mmHg | 0 in | - | - | - |
| 1788153904 | 56° F | 83% | 762.2 mmHg | 0 in | - | - | - |
| 1788153604 | 56° F | 83% | 762.2 mmHg | 0 in | - | - | - |
| 1788153304 | 57° F | 84% | 762.1 mmHg | 0 in | - | - | - |
| 1788153004 | 57° F | 82% | 762 mmHg | 0 in | - | - | - |
| 1788152704 | 57° F | 81% | 761.9 mmHg | 0 in | - | - | - |
| 1788152404 | 58° F | 79% | 761.6 mmHg | 0 in | - | - | - |
| 1788152104 | 58° F | 78% | 761.6 mmHg | 0 in | - | - | - |
| 1788151804 | 59° F | 77% | 761.5 mmHg | 0 in | - | - | - |
| 1788151504 | 59° F | 76% | 761.5 mmHg | 0 in | - | - | - |
| 1788151204 | 59° F | 77% | 761.5 mmHg | 0 in | - | - | - |
| 1788150904 | 59° F | 76% | 761.6 mmHg | 0 in | - | - | - |
| 1788150604 | 59° F | 77% | 761.3 mmHg | 0 in | - | - | - |
| 1788150304 | 59° F | 76% | 761.2 mmHg | 0 in | - | - | - |
| 1788150004 | 59° F | 76% | 761.2 mmHg | 0 in | - | - | - |
| 1788149704 | 59° F | 76% | 761.2 mmHg | 0 in | - | - | - |
| 1788149404 | 59° F | 76% | 761.1 mmHg | 0 in | - | - | - |
| 1788149104 | 59° F | 77% | 761.1 mmHg | 0 in | - | - | - |
| 1788148804 | 59° F | 80% | 761.1 mmHg | 0 in | - | - | - |
| 1788148504 | 58° F | 84% | 761.2 mmHg | 0 in | - | - | - |
* Rain latest hour (hover to see other rain measurements)
** Current wind speed in m/s (hover to see current wind gust speed)